This is the latest recevied weather packets stored in our database for station/object WX7FGZ-7. If no packets are shown the sender has not sent any weather packets the latest 10 day(s).
| Time | Temp. | Humidity | Pressure | Rain* | Wind** | Luminosity | Snow |
|---|---|---|---|---|---|---|---|
| 1777894459 | 9.44° C | 69% | 1014.3 hPa | 0 mm | - | - | - |
| 1777894426 | 9.44° C | 69% | 1014.3 hPa | 0 mm | - | - | - |
| 1777894318 | 10° C | 68% | 1014.4 hPa | 0 mm | - | - | - |
| 1777894168 | 10° C | 68% | 1014.4 hPa | 0 mm | - | - | - |
| 1777894124 | 10° C | 68% | 1014.4 hPa | 0 mm | - | - | - |
| 1777894011 | 10° C | 68% | 1014.6 hPa | 0 mm | - | - | - |
| 1777893824 | 10° C | 68% | 1014.6 hPa | 0 mm | - | - | - |
| 1777893706 | 10° C | 67% | 1014.5 hPa | 0 mm | - | - | - |
| 1777893526 | 10° C | 67% | 1014.5 hPa | 0 mm | - | - | - |
| 1777892705 | 10.56° C | 64% | 1014.5 hPa | 0 mm | - | - | - |
| 1777892679 | 10.56° C | 65% | 1014.7 hPa | 0 mm | - | - | - |
| 1777892668 | 10.56° C | 64% | 1014.5 hPa | 0 mm | - | - | - |
| 1777892627 | 10.56° C | 66% | 1014.6 hPa | 0 mm | - | - | - |
| 1777892324 | 10.56° C | 65% | 1014.7 hPa | 0 mm | - | - | - |
| 1777892266 | 10.56° C | 64% | 1014.5 hPa | 0 mm | - | - | - |
| 1777892032 | 10.56° C | 64% | 1014.5 hPa | 0 mm | - | - | - |
| 1777891913 | 11.11° C | 64% | 1014.3 hPa | 0 mm | - | - | - |
| 1777891782 | 11.11° C | 64% | 1014.3 hPa | 0 mm | - | - | - |
| 1777891728 | 11.11° C | 64% | 1014.3 hPa | 0 mm | - | - | - |
| 1777891310 | 10.56° C | 65% | 1014.2 hPa | 0 mm | - | - | - |
| 1777891259 | 10.56° C | 65% | 1014.2 hPa | 0 mm | - | - | - |
| 1777891131 | 10.56° C | 65% | 1014.2 hPa | 0 mm | - | - | - |
| 1777890772 | 10° C | 69% | 1014.2 hPa | 0 mm | - | - | - |
| 1777890706 | 10° C | 69% | 1014.2 hPa | 0 mm | - | - | - |
| 1777890524 | 10° C | 69% | 1014.2 hPa | 0 mm | - | - | - |
* Rain latest hour (hover to see other rain measurements)
** Current wind speed in m/s (hover to see current wind gust speed)